Tracking 19976 objects as of 15-Nov-2019
Live streaming from Space Station
objects crossing your sky now

NOAA 16 DEB

Track NOAA 16 DEB now!
10-day predictions


NORAD ID: 41258
Int'l Code: 2000-055FJ
Perigee: 766.9 km
Apogee: 855.6 km
Inclination: 99.0 °
Period: 101.0 minutes
Semi major axis: 7182 km
RCS: Unknown
Launch date: September 21, 2000
Source: United States (US)
Launch site: AIR FORCE WESTERN TEST RANGE (AFWTR)

Note: This is SATELLITE DEBRIS
aabbcc
Your satellite tracking list
Your tracking list is empty




NASA's NSSDC Master Catalog

Two Line Element Set (TLE):
1 41258U 00055FJ  19317.29624484 +.00001135 +00000-0 +48289-3 0  9994
2 41258 098.9669 073.0506 0061768 284.4843 074.9488 14.26298324200688
Source of the keplerian elements: AFSPC